Location: Unspecified
(0.0000°N, 0.0000°E)
Time: 20:18:26
(UTC+00:00)

JUGNU - Pass Details

Date: 09 December 2017
Orbit: 837 x 864 km, 20.0° (Epoch: 24 June)

Event Time Altitude Azimuth Distance (km) Brightness Sun altitude
Exits shadow 04:20:20 27° 345° (NNW) 1,572 ? -21.1°
Drops below altitude 10° 04:25:05 10° 39° (NE) 2,460 ? -20.0°
Sets 04:28:03 0° 51° (NE) 3,400 ? -19.3°
